This is the latest recevied weather packets stored in our database for station/object EA1EXV-11. If no packets are shown the sender has not sent any weather packets the latest 10 day(s).
| Time | Temp. | Humidity | Pressure | Rain* | Wind** | Luminosity | Snow |
|---|---|---|---|---|---|---|---|
| 1777456835 | 18.89° C | 57% | 1008.2 hPa | - | - | - | - |
| 1777455935 | 18.33° C | 59% | 1008.4 hPa | - | - | - | - |
| 1777455034 | 17.78° C | 60% | 1008.4 hPa | - | - | - | - |
| 1777454134 | 18.33° C | 61% | 1008.4 hPa | - | - | - | - |
| 1777453234 | 18.89° C | 62% | 1008.5 hPa | - | - | - | - |
| 1777452336 | 18.89° C | 65% | 1008.6 hPa | - | - | - | - |
| 1777451434 | 17.22° C | 68% | 1008.6 hPa | - | - | - | - |
| 1777450534 | 16.11° C | 71% | 1008.7 hPa | - | - | - | - |
| 1777449634 | 15.56° C | 72% | 1008.7 hPa | - | - | - | - |
| 1777448734 | 15.56° C | 74% | 1008.6 hPa | - | - | - | - |
| 1777447834 | 15° C | 74% | 1008.6 hPa | - | - | - | - |
| 1777446934 | 13.89° C | 75% | 1008.6 hPa | - | - | - | - |
| 1777446033 | 12.78° C | 75% | 1008.3 hPa | - | - | - | - |
| 1777445133 | 12.22° C | 75% | 1008.3 hPa | - | - | - | - |
| 1777444233 | 11.67° C | 75% | 1008.3 hPa | - | - | - | - |
| 1777443331 | 11.11° C | 75% | 1008.2 hPa | - | - | - | - |
| 1777442430 | 11.11° C | 75% | 1008.2 hPa | - | - | - | - |
| 1777441530 | 10.56° C | 75% | 1008.1 hPa | - | - | - | - |
| 1777440630 | 10° C | 75% | 1008.3 hPa | - | - | - | - |
| 1777439730 | 10° C | 74% | 1008.5 hPa | - | - | - | - |
| 1777438830 | 10° C | 74% | 1008.5 hPa | - | - | - | - |
| 1777437930 | 10° C | 73% | 1008.5 hPa | - | - | - | - |
| 1777437030 | 10° C | 73% | 1008.7 hPa | - | - | - | - |
| 1777436130 | 10° C | 72% | 1009.1 hPa | - | - | - | - |
| 1777435229 | 10° C | 71% | 1009.2 hPa | - | - | - | - |
* Rain since midnight (hover to see other rain measurements)
** Current wind speed in m/s (hover to see current wind gust speed)